Regional Weather Roundup
Issued by NWS

Home | Current Version | Previous Version | Text Only | Print | Product List | Glossary Off
Versions: 1 2 3 4 5 6 7 8 9 10 11 12 13 14 15 16 17 18 19 20 21 22 23 24 25 26 27 28 29 30 31 32 33 34 35 36 37 38 39 40 41 42 43 44 45 46 47 48 49 50

000
ASUS45 KBOU 232007
RWRCO

WEATHER ROUNDUP FOR COLORADO
NATIONAL WEATHER SERVICE DENVER/BOULDER CO
200 PM MDT TUE SEP 23 2014

NOTE: "FAIR" INDICATES FEW OR NO CLOUDS BELOW 12000 FEET WITH NO
SIGNIFICANT WEATHER AND/OR OBSTRUCTIONS TO VISIBILITY.

COZ001>005-013-030-031-232100-
...NORTHWEST COLORADO...

CITY           SKY/WX    TMP DP  RH WIND       PRES   REMARKS
CRAIG          PTSUNNY   72  47  40 W13       30.25F
HAYDEN         PTSUNNY   70  45  40 W16G22    30.26F
MEEKER         MOSUNNY   73  45  36 SW15G21   30.26F
MOUNT WERNER   NOT AVBL
STEAMBOAT SPGS CLOUDY    63  47  55 W12       30.28S
WALDEN         CLOUDY    59  43  55 SW9       30.34F
$$

COZ006>008-011-232100-
...WEST CENTRAL VALLEYS...

CITY           SKY/WX    TMP DP  RH WIND       PRES   REMARKS
GRAND JUNCTION SUNNY     80  49  33 W8        30.17F
MONTROSE       MOSUNNY   78  44  29 N10       30.25F
EAGLE          PTSUNNY   70  46  43 W8        30.29F
RIFLE          CLOUDY    73  50  44 W5        30.21F
DELTA          MOSUNNY   79  51  37 CALM      30.20F
NUCLA          MOSUNNY   77  37  24 CALM      30.28F
$$

COZ017>023-064>068-232100-
...SOUTHWEST COLORADO...

CITY           SKY/WX    TMP DP  RH WIND       PRES   REMARKS
DURANGO        SUNNY     74  36  25 NW10      30.28F
CORTEZ         SUNNY     78  37  22 W10       30.25F
PAGOSA SPRINGS SUNNY     71  36  28 SW8       30.34F
TELLURIDE      NOT AVBL
WOLF CREEK PAS PTSUNNY   46  36  66 S8G17     30.60F
$$

COZ009-010-012-014-032>034-037-058>063-232100-
...CENTRAL COLORADO...

CITY           SKY/WX    TMP DP  RH WIND       PRES   REMARKS
ASPEN          PTSUNNY   65  42  43 NW10G16   30.35F
BUENA VISTA    PTSUNNY   68  37  31 N6        30.30F
COPPER MTN     CLOUDY    48  32  53 W22G35    30.58F
BERTHOUD PASS  LGT RAIN  36  34  93 W32G41    30.56F VSB 1/4
COTTONWOOD PAS PTSUNNY   63  32  31 NW9G22    30.44S
GUNNISON       MOSUNNY   64  45  48 N5        30.36F
KREMMLING      CLOUDY    61  43  51 NW6       30.33R
LEADVILLE      PTSUNNY   57  31  37 NW14G22   30.44F
MONARCH PASS   PTSUNNY   46  39  76 W29G39    30.68S
SALIDA         PTSUNNY   71  38  29 NE5       30.35F
SUNLIGHT       CLOUDY    55  43  62 CALM      30.56S
WILKERSON PASS NOT AVBL
$$

COZ069>075-232100-
...SAN LUIS VALLEY/SANGRE DE CRISTO MOUNTAINS...

CITY           SKY/WX    TMP DP  RH WIND       PRES   REMARKS
ALAMOSA        SUNNY     74  33  22 MISG      30.30F
LA VETA PASS   MOSUNNY   61  32  33 SW5       30.47F
SAGUACHE       NOT AVBL
$$

COZ035-036-038>040-232100-
...NORTHERN COLORADO FRONT RANGE...

CITY           SKY/WX    TMP DP  RH WIND       PRES   REMARKS
DENVER INTL AP MOSUNNY   81  40  23 NW14      30.12F
DMNS CITY PARK   N/A     79  41  26 NW7       30.11S
AURORA         MOSUNNY   76  41  28 SW8       30.14F
FRONT RANGE AP PTSUNNY   81  39  22 SW7       30.14F
ERIE MUNI ARPT MOSUNNY   83  38  19 W16G26    30.10S
BOULDER MUN AP SUNNY     79  41  25 SW16G26   30.11S
CENTENNIAL     PTSUNNY   76  40  27 N5        30.15F
BROOMFIELD     PTSUNNY   77  39  25 NW13G20   30.14
FORT COLLINS   MOSUNNY   79  45  29 E6        30.10F
LONGMONT       MOSUNNY   86  41  20 W8        30.10F
$$

COZ041-046-047-076>085-087-088-232100-
...PIKES PEAK/PALMER DIVIDE AND SOUTHERN FOOTHILLS...

CITY           SKY/WX    TMP DP  RH WIND       PRES   REMARKS
COLO. SPRINGS  MOSUNNY   82  32  16 N10       30.16F
A. F. ACADEMY  MOSUNNY   79  33  19 NW14      30.18F
ELLICOTT       NOT AVBL
FALCON         CLOUDY    78  31  17 W12G20    30.22F
FORT CARSON    MOSUNNY   81  37  20 VRB2      30.14F
LIMON          MOSUNNY   79  40  24 N9        30.12F
MONUMENT HILL  CLOUDY    72  32  23 N6        30.22F
TRINIDAD       MOSUNNY   82  36  19 N6        30.15F
$$

COZ042>045-048>051-090-091-232100-
...NORTHEAST COLORADO...

CITY           SKY/WX    TMP DP  RH WIND       PRES   REMARKS
GREELEY ARPT   MOSUNNY   81  43  26 S9        30.09F
AKRON          CLOUDY    76  49  38 W7        30.08F
BURLINGTON     SUNNY     82  51  34 VRB6      30.06F
WRAY           SUNNY     87  43  21 W16G25    30.03S
STERLING       CLOUDY    81  46  30 NW10      30.03R
HOLYOKE        SUNNY     82  45  26 W15G22    30.01S
FORT MORGAN    MOSUNNY   82  43  25 SW8       30.08F
$$

COZ086-089-092>099-232100-
...SOUTHEAST COLORADO...

CITY           SKY/WX    TMP DP  RH WIND       PRES   REMARKS
PUEBLO         MOSUNNY   86  37  17 W13G26    30.06F
LA JUNTA       SUNNY     87  48  25 VRB5      30.04F
LAMAR          SUNNY     87  49  26 E6        30.00F
SPRINGFIELD      N/A     85  43  22 CALM      30.05F
$$



USA.gov is the U.S. government's official web portal to all federal, state and local government web resources and services.